When you browse on this site, cookies collect data to enhance your experience and personalize the content and advertising you see.
Visit our Privacy Policy to learn more. By continuing to use the site, you agree to this use of cookies and data.
  • In United Kingdom
  • List of Countries
  • For 7 days
  • Water Temperature
  • Satellite Maps
  • Weather Map
  • Weather Widgets
  • user-avatar
    Login

    Hourly Weather Lingolsheim

    Today, 16 December, Sunday

    Time Temperature Precipitation Wind Pressure Humidity
    00:00 +1°C° 0.1 mm 1 mps 748 mmHg 65%
    01:00 +1°C° 0.1 mm 1 mps 748 mmHg 66%
    02:00 +1°C° 0.9 mm 1 mps 747 mmHg 74%
    03:00 -1°C° 0.9 mm 2 mps 747 mmHg 81%
    04:00 -1°C° 0.9 mm 2 mps 746 mmHg 89%
    05:00 +1°C° 0.3 mm 2 mps 746 mmHg 89%
    06:00 +1°C° 0.3 mm 2 mps 746 mmHg 90%
    07:00 +2°C° 0.3 mm 2 mps 746 mmHg 91%
    08:00 +2°C° 0.1 mm 2 mps 746 mmHg 92%
    09:00 +3°C° 0.1 mm 2 mps 746 mmHg 93%
    10:00 +4°C° 0.1 mm 2 mps 746 mmHg 94%
    11:00 +4°C° 0 mm 2 mps 746 mmHg 93%
    12:00 +5°C° 0 mm 2 mps 746 mmHg 93%
    13:00 +6°C° 0 mm 2 mps 747 mmHg 92%
    14:00 +5°C° 0 mm 2 mps 747 mmHg 93%
    15:00 +5°C° 0 mm 2 mps 747 mmHg 94%
    16:00 +5°C° 0 mm 1 mps 747 mmHg 94%
    17:00 +5°C° 0 mm 1 mps 747 mmHg 94%
    18:00 +5°C° 0 mm 1 mps 748 mmHg 95%
    19:00 +4°C° 0 mm 1 mps 748 mmHg 95%
    20:00 +4°C° 0 mm 1 mps 748 mmHg 94%
    21:00 +3°C° 0 mm 1 mps 749 mmHg 94%
    22:00 +3°C° 0 mm 1 mps 749 mmHg 93%
    23:00 +3°C° 0 mm 1 mps 749 mmHg 93%

    Tomorrow, 17 December, Monday

    Time Temperature Precipitation Wind Pressure Humidity
    00:00 +2°C° 0 mm 1 mps 749 mmHg 92%
    01:00 +2°C° 0 mm 1 mps 749 mmHg 92%
    02:00 +2°C° 0 mm 1 mps 749 mmHg 92%
    03:00 +2°C° 0 mm 1 mps 749 mmHg 91%
    04:00 +2°C° 0 mm 1 mps 749 mmHg 91%
    05:00 +2°C° 0 mm 2 mps 749 mmHg 91%
    06:00 +2°C° 0 mm 2 mps 750 mmHg 91%
    07:00 +2°C° 0 mm 2 mps 750 mmHg 91%
    08:00 +3°C° 0.3 mm 2 mps 750 mmHg 90%
    09:00 +3°C° 0.3 mm 2 mps 751 mmHg 90%
    10:00 +4°C° 0.3 mm 2 mps 752 mmHg 90%
    11:00 +3°C° 0.2 mm 3 mps 752 mmHg 90%
    12:00 +4°C° 0.2 mm 3 mps 753 mmHg 91%
    13:00 +4°C° 0.2 mm 3 mps 753 mmHg 92%
    14:00 +4°C° 0.2 mm 4 mps 754 mmHg 92%
    15:00 +4°C° 0.2 mm 4 mps 754 mmHg 93%
    16:00 +4°C° 0.2 mm 4 mps 755 mmHg 93%
    17:00 +4°C° 0 mm 3 mps 756 mmHg 93%
    18:00 +3°C° 0 mm 3 mps 756 mmHg 93%
    19:00 +3°C° 0 mm 3 mps 757 mmHg 93%
    20:00 +3°C° 0 mm 3 mps 757 mmHg 93%
    21:00 +4°C° 0 mm 2 mps 758 mmHg 93%
    22:00 +3°C° 0 mm 2 mps 758 mmHg 93%
    23:00 +3°C° 0 mm 2 mps 758 mmHg 93%

    Day after tomorrow, 18 December, Tuesday

    Time Temperature Precipitation Wind Pressure Humidity
    00:00 +2°C° 0 mm 2 mps 758 mmHg 93%
    01:00 +3°C° 0 mm 1 mps 759 mmHg 93%
    02:00 +3°C° 0 mm 1 mps 758 mmHg 92%
    03:00 +2°C° 0 mm 1 mps 758 mmHg 92%
    04:00 +2°C° 0 mm 1 mps 758 mmHg 92%
    05:00 +2°C° 0 mm 1 mps 758 mmHg 91%
    06:00 +2°C° 0 mm 1 mps 758 mmHg 90%
    07:00 +2°C° 0 mm 1 mps 757 mmHg 90%
    08:00 +3°C° 0 mm 1 mps 757 mmHg 88%
    09:00 +3°C° 0 mm 1 mps 757 mmHg 86%
    10:00 +4°C° 0 mm 1 mps 757 mmHg 84%
    11:00 +5°C° 0 mm 1 mps 756 mmHg 81%
    12:00 +5°C° 0 mm 2 mps 755 mmHg 78%
    13:00 +6°C° 0 mm 2 mps 754 mmHg 75%
    14:00 +6°C° 0 mm 2 mps 754 mmHg 78%
    15:00 +5°C° 0 mm 2 mps 753 mmHg 80%
    16:00 +4°C° 0 mm 2 mps 753 mmHg 83%
    17:00 +4°C° 0 mm 2 mps 753 mmHg 82%
    18:00 +3°C° 0 mm 2 mps 752 mmHg 81%
    19:00 +2°C° 0 mm 2 mps 752 mmHg 80%
    20:00 +2°C° 0 mm 2 mps 752 mmHg 77%
    21:00 +2°C° 0 mm 2 mps 751 mmHg 74%
    22:00 +2°C° 0 mm 2 mps 751 mmHg 72%
    23:00 +2°C° 0 mm 2 mps 751 mmHg 71%

    19 December, Wednesday

    Time Temperature Precipitation Wind Pressure Humidity
    00:00 +3°C° 0 mm 2 mps 751 mmHg 70%
    01:00 +3°C° 0 mm 2 mps 751 mmHg 68%
    02:00 +3°C° 0 mm 2 mps 751 mmHg 69%
    03:00 +3°C° 0 mm 2 mps 751 mmHg 69%
    04:00 +4°C° 0 mm 2 mps 751 mmHg 69%
    05:00 +4°C° 0 mm 2 mps 751 mmHg 71%
    06:00 +4°C° 0 mm 2 mps 750 mmHg 73%
    07:00 +4°C° 0 mm 2 mps 750 mmHg 75%
    08:00 +5°C° 0.1 mm 2 mps 750 mmHg 77%
    09:00 +5°C° 0.1 mm 2 mps 751 mmHg 79%
    10:00 +5°C° 0.1 mm 2 mps 751 mmHg 81%
    11:00 +6°C° 0.2 mm 2 mps 750 mmHg 82%
    12:00 +6°C° 0.2 mm 2 mps 750 mmHg 84%
    13:00 +8°C° 0.2 mm 1 mps 750 mmHg 85%
    14:00 +7°C° 0.3 mm 1 mps 749 mmHg 86%
    15:00 +7°C° 0.3 mm 1 mps 749 mmHg 88%
    16:00 +7°C° 0.3 mm 1 mps 749 mmHg 89%
    17:00 +7°C° 0.7 mm 1 mps 749 mmHg 91%
    18:00 +7°C° 0.7 mm 1 mps 749 mmHg 92%
    19:00 +6°C° 0.7 mm 1 mps 749 mmHg 93%
    20:00 +6°C° 0.2 mm 1 mps 750 mmHg 94%
    21:00 +6°C° 0.2 mm 1 mps 750 mmHg 94%
    22:00 +6°C° 0.2 mm 1 mps 750 mmHg 94%
    23:00 +6°C° 0.1 mm 1 mps 750 mmHg 95%

    20 December, Thursday

    Time Temperature Precipitation Wind Pressure Humidity
    00:00 +6°C° 0.1 mm 1 mps 750 mmHg 95%
    01:00 +5°C° 0.1 mm 1 mps 750 mmHg 95%
    02:00 +5°C° 0.2 mm 1 mps 750 mmHg 95%
    03:00 +5°C° 0.2 mm 1 mps 750 mmHg 95%
    04:00 +5°C° 0.2 mm 1 mps 751 mmHg 95%
    05:00 +5°C° 0.2 mm 1 mps 751 mmHg 95%
    06:00 +5°C° 0.2 mm 1 mps 751 mmHg 95%
    07:00 +5°C° 0.2 mm 1 mps 751 mmHg 95%
    08:00 +6°C° 0.3 mm 1 mps 752 mmHg 94%
    09:00 +5°C° 0.3 mm 2 mps 752 mmHg 94%
    10:00 +5°C° 0.3 mm 2 mps 753 mmHg 93%
    11:00 +6°C° 0.1 mm 2 mps 753 mmHg 91%
    12:00 +6°C° 0.1 mm 2 mps 753 mmHg 89%
    13:00 +5°C° 0.1 mm 3 mps 753 mmHg 87%
    14:00 +5°C° 0 mm 3 mps 753 mmHg 88%
    15:00 +6°C° 0 mm 2 mps 754 mmHg 88%
    16:00 +6°C° 0 mm 2 mps 754 mmHg 88%
    17:00 +5°C° 0 mm 2 mps 755 mmHg 89%
    18:00 +5°C° 0 mm 2 mps 755 mmHg 90%
    19:00 +4°C° 0 mm 2 mps 756 mmHg 90%
    20:00 +4°C° 0 mm 2 mps 756 mmHg 91%
    21:00 +4°C° 0 mm 2 mps 757 mmHg 91%
    22:00 +3°C° 0 mm 2 mps 757 mmHg 92%
    23:00 +3°C° 0 mm 2 mps 757 mmHg 92%

    21 December, Friday

    Time Temperature Precipitation Wind Pressure Humidity
    00:00 +3°C° 0 mm 2 mps 757 mmHg 92%
    01:00 +3°C° 0 mm 2 mps 757 mmHg 92%
    02:00 +3°C° 0 mm 2 mps 757 mmHg 92%
    03:00 +2°C° 0 mm 2 mps 757 mmHg 92%
    04:00 +2°C° 0 mm 2 mps 757 mmHg 92%
    05:00 +2°C° 0 mm 2 mps 757 mmHg 91%
    06:00 +2°C° 0 mm 2 mps 757 mmHg 91%
    07:00 +2°C° 0 mm 2 mps 757 mmHg 90%
    08:00 +2°C° 0 mm 3 mps 756 mmHg 87%
    09:00 +3°C° 0 mm 3 mps 756 mmHg 83%
    10:00 +3°C° 0 mm 4 mps 756 mmHg 80%
    11:00 +4°C° 0.1 mm 4 mps 755 mmHg 77%
    12:00 +5°C° 0.1 mm 4 mps 754 mmHg 74%
    13:00 +6°C° 0.1 mm 4 mps 754 mmHg 70%
    14:00 +6°C° 0.6 mm 4 mps 753 mmHg 74%
    15:00 +6°C° 0.6 mm 4 mps 753 mmHg 78%
    16:00 +6°C° 0.6 mm 5 mps 753 mmHg 81%
    17:00 +6°C° 1.7 mm 5 mps 753 mmHg 84%
    18:00 +6°C° 1.7 mm 5 mps 752 mmHg 86%
    19:00 +7°C° 1.7 mm 6 mps 752 mmHg 88%
    20:00 +7°C° 0.9 mm 5 mps 752 mmHg 88%
    21:00 +7°C° 0.9 mm 5 mps 752 mmHg 89%
    22:00 +7°C° 0.9 mm 5 mps 752 mmHg 89%
    23:00 +8°C° 0.3 mm 5 mps 752 mmHg 88%
    Show more